Weather Roundup
Issued by NWS Springfield, MO

Home | Current Version | Previous Version | Text Only | Print | Product List | Glossary On
Versions: 1 2 3 4 5 6 7 8 9 10 11 12 13 14 15 16 17 18 19 20 21 22 23 24 25 26 27 28 29 30 31 32 33 34 35 36 37 38 39 40 41 42 43 44 45 46 47 48 49 50
000
NZUS99 KSGF 260957
HRRSGF

HOURLY WEATHER
NATIONAL WEATHER SERVICE SPRINGFIELD MO
500 AM CDT THU MAY 26 2016

......SGF CWA......

CITY           SKY/WX    TMP DP  RH WIND       PRES   REMARKS
SPRINGFIELD    CLOUDY    71  69  93 S10       29.93S
JOPLIN         CLOUDY    75  71  87 S15       29.89F
WEST PLAINS    CLOUDY    72  69  90 S7        29.98F FOG
ROLLA          CLOUDY    72  69  90 S10       29.92F

......SURROUNDING SGF CWA......

CITY           SKY/WX    TMP DP  RH WIND       PRES   REMARKS
CHANUTE        MOCLDY    75  72  90 S9        29.86R
PARSONS        CLOUDY    77  74  90 S8        29.87R
COFFEYVILLE    CLOUDY    77  73  87 S9        29.85F
EMPORIA        CLOUDY    73  71  93 S5        29.85S
HARRISON AR    CLEAR     71  69  93 SE9       29.94F

......KANSAS AND MISSOURI......

CITY           SKY/WX    TMP DP  RH WIND       PRES   REMARKS
KANSAS CTY INT TSTM      64  61  90 S20       29.87F
DOWNTOWN KC    TSTM      66  63  88 VRB3      29.93R
COLUMBIA       TSTM      70  61  73 NW21G37   29.94R
SEDALIA        TSTM      65  62  90 E7        29.94F
ST JOSEPH      CLOUDY    67  62  84 S8        29.87R
ST LOUIS       MOCLDY    72  67  84 S8        29.92F
WICHITA        CLOUDY    74  70  87 VRB3      29.83R
TOPEKA         CLOUDY    68  64  87 E8        29.87R
OLATHE         TSTM      65  59  81 VRB7      29.92F

......TENNESSEE......

CITY           SKY/WX    TMP DP  RH WIND       PRES   REMARKS
MEMPHIS        NOT AVBL
NASHVILLE      MOCLDY    65  62  90 S6        30.11S

......ARKANSAS.......

CITY           SKY/WX    TMP DP  RH WIND       PRES   REMARKS
FAYETTEVILLE   CLEAR     73  72  96 S10       29.93F
FT SMITH       PTCLDY    73  70  90 CALM      29.92S
LITTLE ROCK    PTCLDY    77  72  84 S10       29.97F

......OKLAHOMA.......

CITY           SKY/WX    TMP DP  RH WIND       PRES   REMARKS
TULSA          CLOUDY    79  74  84 S13       29.85S
PONCA CITY     CLOUDY    77  73  87 S8        29.83R
MCALESTER      CLOUDY    78  72  81 S10G22    29.91S
OKLAHOMA CITY  CLOUDY    77  74  90 S16       29.86F

......IOWA............

CITY           SKY/WX    TMP DP  RH WIND       PRES   REMARKS
DES MOINES     NOT AVBL
QUAD CITIES    CLOUDY    73  63  70 SW12      29.87R

......ILLINOIS........

CITY           SKY/WX    TMP DP  RH WIND       PRES   REMARKS
QUINCY         NOT AVBL
CHICAGO        PTCLDY    67  65  93 S9        29.87F



USA.gov is the U.S. government's official web portal to all federal, state and local government web resources and services.